Regional Weather Roundup
Issued by NWS

Home | Current Version | Previous Version | Graphics & Text | Print | Product List | Glossary On
Versions: 1 2 3 4 5 6 7 8 9 10 11 12 13 14 15 16 17 18 19 20 21 22 23 24 25 26 27 28 29 30 31 32 33 34 35 36 37 38 39 40 41 42 43 44 45 46 47 48 49 50
000
ASUS45 KCYS 022010
RWRWY

WYOMING REGIONAL WEATHER ROUNDUP
NATIONAL WEATHER SERVICE CHEYENNE WY
200 PM MDT THU JUL 02 2015

NOTE:  "FAIR" INDICATES FEW OR NO CLOUDS BELOW 12,000 FEET
WITH NO SIGNIFICANT WEATHER AND/OR OBSTRUCTIONS TO VISIBILITY.

WYZ001-022100-
YELLOWSTONE NATIONAL PARK

CITY           SKY/WX    TMP DP  RH WIND       PRES   REMARKS
LK YELLOWSTONE   N/A     75  44  33 VRB5      30.35F
W YELLOWSTONE  NOT AVBL

$$
WYZ002>013-054>058-071-098>099-022100-
NORTHERN WYOMING

CITY           SKY/WX    TMP DP  RH WIND       PRES   REMARKS
JACKSON        FAIR      82  45  26 SW6       30.22F
CODY           FAIR      79  50  36 N9        30.19F
GREYBULL       FAIR      88  49  25 VRB6      30.08F
WORLAND        FAIR      83  50  31 VRB3      30.11F
SHERIDAN       FAIR      83  54  36 NW14      30.15F
BUFFALO        PTSUNNY   74  56  53 N9G18     30.21F
GILLETTE       FAIR      77  56  48 N8        30.17S
HULETT         MOCLDY    72  54  53 N14G23    30.18S
NEWCASTLE      FAIR      75  52  43 N16       30.15F

$$
WYZ014>020-022>026-101>103-022100-
CENTRAL WYOMING

CITY           SKY/WX    TMP DP  RH WIND       PRES   REMARKS
BIG PINEY      FAIR      83  48  29 S8        30.27F
PINEDALE       FAIR      81  43  26 CALM      30.27F
DUBOIS         FAIR      77  46  33 E14G21    30.27F
LANDER         FAIR      82  51  34 E9        30.19F
RIVERTON       FAIR      80  48  32 E9        30.19F
CASPER         FAIR      81  50  33 VRB3      30.19F
DOUGLAS        FAIR      80  51  36 MISG      30.19S

$$
WYZ021-027>030-104>119-022100-
SOUTHERN WYOMING

CITY           SKY/WX    TMP DP  RH WIND       PRES   REMARKS
EVANSTON       FAIR      85  37  18 VRB5G18   30.28S
KEMMERER       FAIR     N/A N/A N/A W13       30.28F
FORT BRIDGER   PTCLDY    88  34  14 W5        30.28F
ROCK SPRINGS   FAIR      83  50  31 CALM      30.24F
DIXON          FAIR      83  45  25 N7        30.24F
RAWLINS        FAIR      78  51  38 VRB3      30.27F
SARATOGA       FAIR      79  46  31 N8        30.28F
LARAMIE        FAIR      78  46  32 N8        30.29F
CHEYENNE       FAIR      78  50  37 N7        30.24F
TORRINGTON     PTSUNNY   82  55  39 N15G21    30.11F
PINE BLUFFS    FAIR      81  45  28 NW10G16   30.18F

$$


USA.gov is the U.S. government's official web portal to all federal, state and local government web resources and services.